RYR53CB EPKK-EDJA

Flight info

Callsign RYR53CB
Flight time 1h 13m
Altitude 38000
Route TUSIN DCT MIKOV DCT SBG DCT TRAUN/N0302F120 L856 KPT KPT1C
Aircraft B738/M-SDE2E3FGHIRWXY/LB1

Departure

Time 2026-05-09 12:18
Airport Kraków John Paul II International Airport (EPKK)

Arrival

Time 2026-05-09 13:32
Airport Memmingen Allgau Airport (EDJA)
Time Latitude Longitude Altitude Speed Heading
2026-05-09 12:01 50.07475 19.80143 800 ft 0 kts 167°
2026-05-09 12:15 50.07427 19.80215 800 ft 13 kts 81°
2026-05-09 12:15 50.07449 19.80340 800 ft 10 kts 54°
2026-05-09 12:16 50.07502 19.80394 800 ft 8 kts 18°
2026-05-09 12:16 50.07573 19.80419 800 ft 12 kts
2026-05-09 12:16 50.07662 19.80399 800 ft 14 kts 345°
2026-05-09 12:16 50.07761 19.80367 800 ft 14 kts 345°
2026-05-09 12:17 50.07861 19.80328 800 ft 15 kts 347°
2026-05-09 12:17 50.07972 19.80273 800 ft 18 kts 327°
2026-05-09 12:17 50.07992 19.80098 800 ft 18 kts 257°
2026-05-09 12:17 50.07932 19.79621 800 ft 76 kts 257°
2026-05-09 12:18 50.07773 19.78488 801 ft 134 kts 257°
2026-05-09 12:18 50.07541 19.76864 968 ft 164 kts 258°
2026-05-09 12:18 50.07303 19.75002 1277 ft 187 kts 258°
2026-05-09 12:18 50.07032 19.72994 1978 ft 188 kts 258°
2026-05-09 12:19 50.06729 19.71109 2907 ft 175 kts 253°
2026-05-09 12:19 50.06344 19.69184 3215 ft 196 kts 253°
2026-05-09 12:19 50.05909 19.67012 3512 ft 217 kts 255°
2026-05-09 12:19 50.05447 19.64627 3868 ft 233 kts 255°
2026-05-09 12:20 50.05002 19.62189 4489 ft 237 kts 255°
2026-05-09 12:20 50.04543 19.59680 5138 ft 239 kts 255°
2026-05-09 12:20 50.04069 19.57176 5755 ft 242 kts 255°
2026-05-09 12:20 50.03585 19.54638 6425 ft 243 kts 255°
2026-05-09 12:21 50.03119 19.52110 7103 ft 243 kts 255°
2026-05-09 12:21 50.02643 19.49542 7746 ft 245 kts 254°
2026-05-09 12:21 50.02155 19.46972 8398 ft 246 kts 254°
2026-05-09 12:21 50.01665 19.44396 9040 ft 248 kts 254°
2026-05-09 12:22 50.01175 19.41817 9673 ft 250 kts 253°
2026-05-09 12:22 50.00675 19.39166 10309 ft 252 kts 253°
2026-05-09 12:22 50.00171 19.36527 10939 ft 254 kts 253°
2026-05-09 12:22 49.99669 19.33896 11553 ft 256 kts 252°
2026-05-09 12:23 49.99162 19.31252 12168 ft 258 kts 252°
2026-05-09 12:23 49.98645 19.28563 12791 ft 260 kts 252°
2026-05-09 12:23 49.98119 19.25827 13415 ft 262 kts 252°
2026-05-09 12:23 49.97592 19.23086 14030 ft 264 kts 252°
2026-05-09 12:24 49.97062 19.20328 14642 ft 266 kts 252°
2026-05-09 12:24 49.96526 19.17544 15250 ft 268 kts 253°
2026-05-09 12:24 49.95985 19.14736 15845 ft 270 kts 253°
2026-05-09 12:24 49.95443 19.11923 16422 ft 272 kts 253°
2026-05-09 12:25 49.94890 19.09058 16991 ft 274 kts 253°
2026-05-09 12:25 49.94338 19.06210 17537 ft 276 kts 253°
2026-05-09 12:25 49.93783 19.03343 18071 ft 278 kts 253°
2026-05-09 12:25 49.93214 19.00407 18600 ft 280 kts 254°
2026-05-09 12:26 49.92647 18.97490 19107 ft 282 kts 254°
2026-05-09 12:26 49.92066 18.94503 19611 ft 284 kts 254°
2026-05-09 12:26 49.91484 18.91519 20098 ft 286 kts 254°
2026-05-09 12:26 49.90902 18.88535 20568 ft 289 kts 254°
2026-05-09 12:27 49.90309 18.85505 21029 ft 291 kts 255°
2026-05-09 12:27 49.89731 18.82552 21463 ft 293 kts 255°
2026-05-09 12:27 49.89132 18.79497 21895 ft 295 kts 255°
2026-05-09 12:27 49.88527 18.76415 22315 ft 297 kts 255°
2026-05-09 12:28 49.87917 18.73315 22724 ft 299 kts 255°
2026-05-09 12:28 49.87302 18.70191 23119 ft 301 kts 255°
2026-05-09 12:28 49.86684 18.67056 23504 ft 303 kts 255°
2026-05-09 12:28 49.86061 18.63906 23877 ft 305 kts 256°
2026-05-09 12:29 49.85424 18.60719 24240 ft 307 kts 254°
2026-05-09 12:29 49.84602 18.57606 24583 ft 312 kts 246°
2026-05-09 12:29 49.83420 18.54725 24917 ft 317 kts 237°
2026-05-09 12:29 49.82030 18.52046 25259 ft 320 kts 235°
2026-05-09 12:30 49.80597 18.49340 25569 ft 322 kts 235°
2026-05-09 12:30 49.79163 18.46629 25880 ft 324 kts 235°
2026-05-09 12:30 49.76281 18.41174 26473 ft 328 kts 235°
2026-05-09 12:31 49.74808 18.38388 26761 ft 330 kts 236°
2026-05-09 12:31 49.71885 18.32864 27301 ft 335 kts 235°
2026-05-09 12:31 49.70408 18.30080 27573 ft 337 kts 235°
2026-05-09 12:32 49.68895 18.27228 27838 ft 339 kts 235°
2026-05-09 12:32 49.67402 18.24416 28093 ft 340 kts 235°
2026-05-09 12:32 49.65885 18.21561 28345 ft 342 kts 235°
2026-05-09 12:32 49.64344 18.18665 28591 ft 344 kts 235°
2026-05-09 12:33 49.62798 18.15762 28833 ft 346 kts 235°
2026-05-09 12:33 49.61275 18.12904 29060 ft 348 kts 235°
2026-05-09 12:33 49.59716 18.09985 29290 ft 349 kts 235°
2026-05-09 12:33 49.58172 18.07095 29508 ft 351 kts 235°
2026-05-09 12:34 49.56598 18.04151 29726 ft 353 kts 235°
2026-05-09 12:34 49.55006 18.01178 29939 ft 355 kts 235°
2026-05-09 12:34 49.53416 17.98213 30145 ft 356 kts 235°
2026-05-09 12:34 49.51833 17.95263 30346 ft 358 kts 235°
2026-05-09 12:35 49.50225 17.92269 30542 ft 359 kts 235°
2026-05-09 12:35 49.48607 17.89261 30737 ft 361 kts 235°
2026-05-09 12:35 49.46988 17.86254 30926 ft 363 kts 235°
2026-05-09 12:35 49.45353 17.83222 31111 ft 364 kts 235°
2026-05-09 12:36 49.43739 17.80231 31291 ft 366 kts 235°
2026-05-09 12:36 49.42239 17.77457 31451 ft 367 kts 236°
2026-05-09 12:36 49.40628 17.74479 31623 ft 368 kts 236°
2026-05-09 12:36 49.39171 17.71788 31773 ft 370 kts 236°
2026-05-09 12:37 49.38258 17.70104 31863 ft 370 kts 236°
2026-05-09 12:37 49.34892 17.63903 32196 ft 373 kts 236°
2026-05-09 12:37 49.32476 17.59461 32421 ft 375 kts 236°
2026-05-09 12:38 49.30721 17.56240 32582 ft 377 kts 236°
2026-05-09 12:38 49.29007 17.53097 32733 ft 378 kts 236°
2026-05-09 12:38 49.27311 17.49991 32882 ft 379 kts 236°
2026-05-09 12:38 49.25600 17.46861 33107 ft 377 kts 236°
2026-05-09 12:39 49.23912 17.43791 33705 ft 365 kts 236°
2026-05-09 12:39 49.22313 17.40884 34300 ft 352 kts 236°
2026-05-09 12:39 49.20748 17.38043 34905 ft 337 kts 236°
2026-05-09 12:39 49.19244 17.35303 35172 ft 335 kts 237°
2026-05-09 12:40 49.17741 17.32556 35218 ft 338 kts 236°
2026-05-09 12:40 49.14657 17.26934 35331 ft 345 kts 236°
2026-05-09 12:41 49.11529 17.21179 35440 ft 349 kts 241°
2026-05-09 12:41 49.10437 17.17899 35483 ft 341 kts 257°
2026-05-09 12:41 49.09784 17.14410 35555 ft 341 kts 260°
2026-05-09 12:42 49.08446 17.07285 35656 ft 350 kts 258°
2026-05-09 12:42 49.06919 16.99989 35759 ft 359 kts 257°
2026-05-09 12:43 49.05320 16.92680 36102 ft 358 kts 256°
2026-05-09 12:43 49.04528 16.89155 37067 ft 335 kts 257°
2026-05-09 12:43 49.03790 16.85890 37863 ft 318 kts 257°
2026-05-09 12:44 49.02324 16.79313 37989 ft 328 kts 257°
2026-05-09 12:44 49.00805 16.72554 38141 ft 336 kts 257°
2026-05-09 12:45 48.99239 16.65642 38184 ft 348 kts 256°
2026-05-09 12:45 48.97604 16.58456 38183 ft 362 kts 256°
2026-05-09 12:46 48.95897 16.50991 38183 ft 376 kts 256°
2026-05-09 12:46 48.94122 16.43256 38182 ft 391 kts 256°
2026-05-09 12:47 48.92264 16.35194 38182 ft 405 kts 256°
2026-05-09 12:47 48.90362 16.26981 38182 ft 419 kts 255°
2026-05-09 12:48 48.88426 16.18649 38182 ft 431 kts 255°
2026-05-09 12:48 48.86373 16.09853 38180 ft 439 kts 255°
2026-05-09 12:49 48.84319 16.01102 38180 ft 436 kts 255°
2026-05-09 12:49 48.82265 15.92378 38182 ft 434 kts 255°
2026-05-09 12:50 48.80224 15.83732 38182 ft 435 kts 255°
2026-05-09 12:50 48.78145 15.74962 38182 ft 436 kts 255°
2026-05-09 12:51 48.76081 15.66290 38182 ft 435 kts 255°
2026-05-09 12:51 48.74000 15.57579 38182 ft 435 kts 255°
2026-05-09 12:52 48.71920 15.48907 38182 ft 435 kts 255°
2026-05-09 12:52 48.69827 15.40215 38182 ft 435 kts 255°
2026-05-09 12:53 48.67753 15.31637 38182 ft 436 kts 254°
2026-05-09 12:53 48.65653 15.22991 38182 ft 436 kts 254°
2026-05-09 12:54 48.63536 15.14304 38182 ft 436 kts 254°
2026-05-09 12:54 48.61415 15.05639 38182 ft 436 kts 254°
2026-05-09 12:55 48.59287 14.96970 38182 ft 436 kts 254°
2026-05-09 12:55 48.57164 14.88358 38182 ft 436 kts 254°
2026-05-09 12:56 48.55029 14.79731 38182 ft 436 kts 254°
2026-05-09 12:56 48.52887 14.71111 38182 ft 436 kts 254°
2026-05-09 12:57 48.50733 14.62475 38182 ft 436 kts 254°
2026-05-09 12:57 48.48584 14.53892 38182 ft 436 kts 254°
2026-05-09 12:58 48.46420 14.45281 38182 ft 436 kts 254°
2026-05-09 12:58 48.45341 14.40996 38017 ft 439 kts 254°
2026-05-09 12:58 48.44244 14.36649 37762 ft 439 kts 254°
2026-05-09 12:58 48.43283 14.32853 37538 ft 436 kts 253°
2026-05-09 12:59 48.42138 14.28346 37270 ft 434 kts 253°
2026-05-09 12:59 48.41065 14.24123 37021 ft 433 kts 253°
2026-05-09 12:59 48.39978 14.19855 36770 ft 433 kts 253°
2026-05-09 12:59 48.38912 14.15671 36526 ft 434 kts 253°
2026-05-09 13:00 48.37824 14.11411 36275 ft 434 kts 253°
2026-05-09 13:00 48.36736 14.07156 36024 ft 434 kts 253°
2026-05-09 13:00 48.35643 14.02893 35772 ft 435 kts 253°
2026-05-09 13:00 48.34551 13.98639 35520 ft 435 kts 253°
2026-05-09 13:01 48.33466 13.94424 35272 ft 436 kts 253°
2026-05-09 13:01 48.32369 13.90168 35021 ft 436 kts 253°
2026-05-09 13:01 48.31264 13.85888 34768 ft 437 kts 253°
2026-05-09 13:01 48.30170 13.81659 34519 ft 437 kts 253°
2026-05-09 13:02 48.29062 13.77386 34267 ft 438 kts 253°
2026-05-09 13:02 48.26859 13.68913 34187 ft 437 kts 253°
2026-05-09 13:03 48.24631 13.60367 34182 ft 441 kts 253°
2026-05-09 13:03 48.22386 13.51797 34181 ft 440 kts 253°
2026-05-09 13:04 48.20147 13.43280 34182 ft 439 kts 253°
2026-05-09 13:04 48.17913 13.34811 34182 ft 440 kts 252°
2026-05-09 13:05 48.13750 13.19119 33836 ft 443 kts 252°
2026-05-09 13:05 48.12584 13.14741 33577 ft 441 kts 252°
2026-05-09 13:06 48.11445 13.10474 33324 ft 438 kts 252°
2026-05-09 13:06 48.10312 13.06233 33074 ft 437 kts 252°
2026-05-09 13:06 48.09162 13.01939 32822 ft 438 kts 252°
2026-05-09 13:06 48.08035 12.97735 32576 ft 439 kts 252°
2026-05-09 13:07 48.06888 12.93467 32324 ft 439 kts 252°
2026-05-09 13:07 48.05750 12.89241 32074 ft 439 kts 252°
2026-05-09 13:07 48.04596 12.84960 31820 ft 439 kts 252°
2026-05-09 13:07 48.03440 12.80684 31567 ft 439 kts 252°
2026-05-09 13:08 48.02305 12.76492 31318 ft 439 kts 252°
2026-05-09 13:08 48.01145 12.72215 31065 ft 439 kts 252°
2026-05-09 13:08 47.99985 12.67945 30810 ft 438 kts 252°
2026-05-09 13:08 47.98894 12.63755 30561 ft 435 kts 254°
2026-05-09 13:09 47.97935 12.59455 30304 ft 430 kts 258°
2026-05-09 13:09 47.97307 12.55092 30171 ft 422 kts 263°
2026-05-09 13:09 47.96841 12.50754 30103 ft 423 kts 265°
2026-05-09 13:09 47.96405 12.46381 29853 ft 427 kts 265°
2026-05-09 13:10 47.95978 12.41989 29598 ft 423 kts 265°
2026-05-09 13:10 47.95556 12.37614 29339 ft 418 kts 265°
2026-05-09 13:10 47.95169 12.33575 29103 ft 415 kts 264°
2026-05-09 13:10 47.94752 12.29230 28847 ft 414 kts 264°
2026-05-09 13:11 47.94341 12.24937 28594 ft 414 kts 264°
2026-05-09 13:11 47.93934 12.20686 28343 ft 412 kts 264°
2026-05-09 13:11 47.93523 12.16433 28090 ft 410 kts 264°
2026-05-09 13:11 47.93117 12.12248 27840 ft 408 kts 264°
2026-05-09 13:12 47.92705 12.08027 27586 ft 406 kts 264°
2026-05-09 13:12 47.92296 12.03843 27334 ft 404 kts 264°
2026-05-09 13:12 47.91891 11.99714 27084 ft 402 kts 264°
2026-05-09 13:12 47.91483 11.95562 26831 ft 401 kts 264°
2026-05-09 13:13 47.91075 11.91421 26578 ft 399 kts 264°
2026-05-09 13:13 47.90667 11.87302 26325 ft 397 kts 264°
2026-05-09 13:13 47.90265 11.83253 26076 ft 395 kts 263°
2026-05-09 13:13 47.89887 11.79458 25840 ft 394 kts 263°
2026-05-09 13:14 47.89473 11.75293 25581 ft 392 kts 263°
2026-05-09 13:14 47.89073 11.71255 25328 ft 390 kts 263°
2026-05-09 13:16 47.86291 11.43654 23505 ft 362 kts 263°
2026-05-09 13:16 47.85918 11.40009 23042 ft 357 kts 263°
2026-05-09 13:16 47.85550 11.36408 22483 ft 355 kts 263°
2026-05-09 13:16 47.85213 11.33132 21991 ft 352 kts 262°
2026-05-09 13:17 47.84828 11.29414 21422 ft 350 kts 262°
2026-05-09 13:17 47.84456 11.25834 20893 ft 347 kts 262°
2026-05-09 13:17 47.84087 11.22289 20354 ft 345 kts 261°
2026-05-09 13:17 47.83716 11.18736 19948 ft 351 kts 261°
2026-05-09 13:18 47.83331 11.15064 19703 ft 359 kts 261°
2026-05-09 13:18 47.82939 11.11344 19444 ft 360 kts 261°
2026-05-09 13:18 47.82553 11.07688 19187 ft 356 kts 261°
2026-05-09 13:18 47.82167 11.04064 18933 ft 354 kts 261°
2026-05-09 13:19 47.81780 11.00453 18682 ft 352 kts 261°
2026-05-09 13:19 47.81402 10.96922 18407 ft 342 kts 261°
2026-05-09 13:19 47.81035 10.93512 18090 ft 333 kts 261°
2026-05-09 13:19 47.80672 10.90137 17578 ft 331 kts 261°
2026-05-09 13:20 47.80312 10.86796 17057 ft 329 kts 261°
2026-05-09 13:20 47.79952 10.83479 16535 ft 327 kts 260°
2026-05-09 13:20 47.79597 10.80204 16030 ft 325 kts 260°
2026-05-09 13:20 47.79260 10.77115 15540 ft 324 kts 260°
2026-05-09 13:21 47.78900 10.73817 15036 ft 322 kts 260°
2026-05-09 13:21 47.78542 10.70547 14523 ft 320 kts 260°
2026-05-09 13:21 47.78181 10.67267 14012 ft 318 kts 260°
2026-05-09 13:21 47.77824 10.64023 13504 ft 316 kts 260°
2026-05-09 13:22 47.77348 10.59721 12826 ft 314 kts 259°
2026-05-09 13:22 47.77116 10.57630 12496 ft 313 kts 259°
2026-05-09 13:22 47.76761 10.54430 11991 ft 311 kts 259°
2026-05-09 13:23 47.75368 10.41985 10596 ft 285 kts 260°
2026-05-09 13:23 47.75049 10.39147 10482 ft 273 kts 260°
2026-05-09 13:24 47.74764 10.36375 10337 ft 264 kts 264°
2026-05-09 13:24 47.74894 10.33704 10075 ft 263 kts 283°
2026-05-09 13:24 47.75473 10.31313 9714 ft 265 kts 290°
2026-05-09 13:24 47.76168 10.28798 9410 ft 263 kts 290°
2026-05-09 13:25 47.76844 10.26295 9087 ft 261 kts 290°
2026-05-09 13:25 47.77522 10.23757 8723 ft 261 kts 290°
2026-05-09 13:25 47.78849 10.18745 8079 ft 258 kts 289°
2026-05-09 13:26 47.79506 10.16254 7718 ft 258 kts 290°
2026-05-09 13:26 47.80164 10.13744 7395 ft 257 kts 290°
2026-05-09 13:26 47.80810 10.11283 7084 ft 255 kts 291°
2026-05-09 13:26 47.81712 10.09035 6815 ft 252 kts 311°
2026-05-09 13:27 47.83103 10.07478 6321 ft 250 kts 328°
2026-05-09 13:27 47.84605 10.06202 5706 ft 245 kts 328°
2026-05-09 13:27 47.86080 10.04931 5080 ft 242 kts 328°
2026-05-09 13:27 47.87540 10.03697 4577 ft 234 kts 333°
2026-05-09 13:28 47.89107 10.03219 4304 ft 222 kts
2026-05-09 13:28 47.90523 10.03893 4196 ft 205 kts 31°
2026-05-09 13:28 47.91459 10.05381 4164 ft 187 kts 56°
2026-05-09 13:28 47.92125 10.07014 4108 ft 181 kts 57°
2026-05-09 13:29 47.92776 10.08635 4059 ft 180 kts 57°
2026-05-09 13:29 47.93427 10.10263 3969 ft 183 kts 57°
2026-05-09 13:29 47.94080 10.11898 3713 ft 182 kts 58°
2026-05-09 13:29 47.94730 10.13528 3479 ft 179 kts 58°
2026-05-09 13:30 47.95354 10.15091 3227 ft 166 kts 58°
2026-05-09 13:30 47.95928 10.16531 3020 ft 158 kts 58°
2026-05-09 13:30 47.96486 10.17931 2828 ft 154 kts 57°
2026-05-09 13:30 47.97039 10.19318 2614 ft 155 kts 58°
2026-05-09 13:31 47.97594 10.20714 2401 ft 155 kts 58°
2026-05-09 13:31 47.98162 10.22138 2139 ft 154 kts 58°
2026-05-09 13:31 47.98678 10.23423 2071 ft 121 kts 58°
2026-05-09 13:31 47.98987 10.24212 2071 ft 57 kts 59°
2026-05-09 13:32 47.99117 10.24538 2071 ft 15 kts 57°
2026-05-09 13:32 47.99242 10.24843 2071 ft 27 kts 59°
2026-05-09 13:32 47.99361 10.25150 2071 ft 33 kts 61°
2026-05-09 13:33 47.99445 10.25405 2071 ft 19 kts 46°
2026-05-09 13:33 47.99467 10.25410 2071 ft 1 kts 299°
2026-05-09 13:33 47.99444 10.25334 2071 ft 13 kts 239°
2026-05-09 13:33 47.99365 10.25153 2071 ft 17 kts 238°
2026-05-09 13:34 47.99323 10.25050 2071 ft 17 kts 240°
2026-05-09 13:34 47.99237 10.24831 2071 ft 36 kts 238°
2026-05-09 13:34 47.99077 10.24429 2071 ft 43 kts 239°
2026-05-09 13:34 47.98933 10.24062 2071 ft 38 kts 238°
2026-05-09 13:35 47.98804 10.23733 2071 ft 33 kts 240°
2026-05-09 13:35 47.98723 10.23533 2071 ft 19 kts 245°
2026-05-09 13:35 47.98648 10.23326 2071 ft 27 kts 240°
2026-05-09 13:35 47.98537 10.23065 2071 ft 32 kts 239°
2026-05-09 13:36 47.98418 10.22752 2071 ft 33 kts 236°
2026-05-09 13:36 47.98388 10.22555 2071 ft 12 kts 324°
2026-05-09 13:36 47.98467 10.22615 2071 ft 16 kts 55°
2026-05-09 13:36 47.98569 10.22717 2071 ft 20 kts 356°
2026-05-09 13:37 47.98716 10.22702 2071 ft 9 kts
2026-05-09 13:37 47.98726 10.22726 2071 ft 3 kts 107°
2026-05-09 13:37 47.98721 10.22733 2071 ft 0 kts 142°
2026-05-09 13:38 47.98725 10.22728 2071 ft 0 kts 129°
2026-05-09 13:38 47.98727 10.22724 2071 ft 0 kts 102°
2026-05-09 13:38 47.98727 10.22723 2071 ft 0 kts 100°